Zurück zum Katalog

STARLINK-37469

AktivKommunikationVLEO
NORAD 69168·PAYLOAD·🇺🇸 United States

Gestartet May 21, 2026 von Cape Canaveral Space Force Station

Loading…

Nächste Überflüge (nächste 24 Stunden)

TLE

AktuellSource: CelesTrak SupGP

Epoche: Sep 15, 2026, 04:31 UTC

1 69168C 26111W   26258.18868056 -.00026442  00000+0 -78113-3 0  2586
2 69168  53.1567  90.4612 0001304  86.0618 321.1188 15.34407503    15

Verfolge STARLINK-37469 in Echtzeit mit AllMySat

Download on the App Store